| time (UTC) | temp F | wind direction | speed MPH | gust MPH | rain 1hr in | rain 24hr in | rain mn in | humidity % | barometer mb |
| 20260506215024 | 60 | 196 | 0.0 | 2.0 | 0.00 | 0.04 | 0.04 | 85 | 1023.4 |
| 20260506214024 | 60 | 180 | 1.0 | 3.0 | 0.00 | 0.04 | 0.04 | 86 | 1023.3 |
| 20260506213023 | 60 | 206 | 1.0 | 4.0 | 0.00 | 0.04 | 0.04 | 87 | 1023.2 |
| 20260506212024 | 60 | 202 | 0.0 | 2.0 | 0.00 | 0.04 | 0.04 | 88 | 1023.1 |
| 20260506211024 | 59 | 202 | 1.0 | 3.0 | 0.00 | 0.04 | 0.04 | 88 | 1023.1 |
| 20260506210024 | 59 | 202 | 0.0 | 1.0 | 0.00 | 0.04 | 0.04 | 89 | 1023.2 |
| 20260506205023 | 58 | 173 | 1.0 | 2.0 | 0.00 | 0.04 | 0.04 | 88 | 1023.1 |
| 20260506202024 | 58 | 206 | 1.0 | 4.0 | 0.00 | 0.04 | 0.04 | 88 | 1023.7 |
| 20260506200123 | 58 | 176 | 1.0 | 2.0 | 0.00 | 0.04 | 0.04 | 87 | 1023.9 |
| 20260506194224 | 58 | 172 | 1.0 | 2.0 | 0.00 | 0.04 | 0.04 | 87 | 1023.9 |
| 20260506193323 | 59 | 197 | 0.0 | 1.0 | 0.00 | 0.04 | 0.04 | 87 | 1023.7 |
| 20260506192324 | 59 | 164 | 1.0 | 2.0 | 0.00 | 0.04 | 0.04 | 87 | 1023.9 |
| 20260506191324 | 59 | 168 | 1.0 | 4.0 | 0.00 | 0.04 | 0.04 | 88 | 1023.8 |
| 20260506190423 | 59 | 184 | 1.0 | 5.0 | 0.00 | 0.04 | 0.04 | 88 | 1023.9 |
| 20260506185423 | 59 | 185 | 1.0 | 4.0 | 0.01 | 0.04 | 0.04 | 89 | 1024.1 |
| 20260506184424 | 59 | 202 | 1.0 | 2.0 | 0.01 | 0.04 | 0.04 | 89 | 1024.5 |
| 20260506183524 | 59 | 152 | 2.0 | 4.0 | 0.02 | 0.04 | 0.04 | 89 | 1024.5 |
| 20260506182525 | 59 | 180 | 1.0 | 3.0 | 0.02 | 0.04 | 0.04 | 89 | 1024.7 |
| 20260506182425 | 59 | 213 | 1.0 | 3.0 | 0.02 | 0.04 | 0.04 | 89 | 1024.6 |
| 20260506181426 | 59 | 179 | 0.0 | 1.0 | 0.04 | 0.04 | 0.04 | 88 | 1024.7 |
| 20260506180524 | 58 | 138 | 1.0 | 2.0 | 0.04 | 0.04 | 0.04 | 88 | 1024.9 |
| 20260506175525 | 58 | 192 | 1.0 | 3.0 | 0.04 | 0.04 | 0.03 | 87 | 1024.9 |
| 20260506174624 | 59 | 207 | 0.0 | 3.0 | 0.03 | 0.03 | 0.03 | 87 | 1025.2 |
| 20260506173626 | 59 | 177 | 1.0 | 3.0 | 0.03 | 0.03 | 0.02 | 86 | 1025.3 |
| 20260506172625 | 59 | 188 | 0.0 | 2.0 | 0.02 | 0.02 | 0.02 | 85 | 1025.5 |
| 20260506170726 | 60 | 212 | 2.0 | 5.0 | 0.00 | 0.00 | 0.00 | 81 | 1025.9 |
| 20260506165725 | 60 | 175 | 0.0 | 1.0 | 0.00 | 0.00 | 0.00 | 79 | 1026.0 |
| 20260506164724 | 61 | 202 | 0.0 | 0.0 | 0.00 | 0.00 | 0.00 | 78 | 1026.0 |
| 20260506163723 | 61 | 214 | 0.0 | 1.0 | 0.00 | 0.00 | 0.00 | 77 | 1026.0 |
| 20260506162724 | 61 | 159 | 1.0 | 2.0 | 0.00 | 0.00 | 0.00 | 76 | 1026.3 |
| 20260506161724 | 62 | 137 | 1.0 | 4.0 | 0.00 | 0.00 | 0.00 | 74 | 1026.1 |
| 20260506160725 | 62 | 158 | 1.0 | 2.0 | 0.00 | 0.00 | 0.00 | 74 | 1026.3 |
| 20260506155823 | 62 | 190 | 1.0 | 2.0 | 0.00 | 0.00 | 0.00 | 74 | 1026.3 |
| 20260506154824 | 63 | 177 | 1.0 | 4.0 | 0.00 | 0.00 | 0.00 | 74 | 1026.3 |
| 20260506153825 | 63 | 190 | 2.0 | 6.0 | 0.00 | 0.00 | 0.00 | 73 | 1026.6 |
| 20260506152823 | 63 | 202 | 2.0 | 5.0 | 0.00 | 0.00 | 0.00 | 74 | 1026.7 |
| 20260506151826 | 62 | 171 | 1.0 | 4.0 | 0.00 | 0.00 | 0.00 | 74 | 1026.6 |
| 20260506150924 | 62 | 151 | 1.0 | 3.0 | 0.00 | 0.00 | 0.00 | 74 | 1026.5 |
| 20260506145925 | 62 | 135 | 1.0 | 3.0 | 0.00 | 0.00 | 0.00 | 74 | 1026.3 |
| 20260506144924 | 63 | 138 | 2.0 | 3.0 | 0.00 | 0.00 | 0.00 | 73 | 1026.3 |
| 20260506143923 | 63 | 195 | 1.0 | 3.0 | 0.00 | 0.00 | 0.00 | 72 | 1026.6 |
| 20260506142924 | 64 | 215 | 1.0 | 3.0 | 0.00 | 0.00 | 0.00 | 71 | 1026.5 |
| 20260506140923 | 64 | 168 | 1.0 | 3.0 | 0.00 | 0.00 | 0.00 | 72 | 1026.6 |
| 20260506135924 | 63 | 185 | 2.0 | 4.0 | 0.00 | 0.00 | 0.00 | 72 | 1026.8 |
| 20260506134923 | 63 | 202 | 1.0 | 3.0 | 0.00 | 0.00 | 0.00 | 73 | 1027.0 |
| 20260506133923 | 63 | 189 | 1.0 | 3.0 | 0.00 | 0.00 | 0.00 | 74 | 1026.8 |
| 20260506132924 | 62 | 213 | 2.0 | 4.0 | 0.00 | 0.00 | 0.00 | 75 | 1026.7 |
| 20260506132023 | 62 | 179 | 2.0 | 3.0 | 0.00 | 0.00 | 0.00 | 75 | 1026.8 |
| 20260506131024 | 62 | 169 | 2.0 | 4.0 | 0.00 | 0.00 | 0.00 | 74 | 1026.7 |
| 20260506130024 | 63 | 177 | 1.0 | 4.0 | 0.00 | 0.00 | 0.00 | 72 | 1026.7 |
| 20260506125123 | 64 | 184 | 1.0 | 4.0 | 0.00 | 0.00 | 0.00 | 72 | 1026.5 |
| 20260506124125 | 63 | 187 | 1.0 | 3.0 | 0.00 | 0.00 | 0.00 | 72 | 1026.6 |
| 20260506123125 | 63 | 193 | 1.0 | 5.0 | 0.00 | 0.00 | 0.00 | 73 | 1027.0 |
| 20260506122224 | 63 | 200 | 1.0 | 2.0 | 0.00 | 0.00 | 0.00 | 74 | 1027.2 |
| 20260506121224 | 62 | 191 | 1.0 | 3.0 | 0.00 | 0.00 | 0.00 | 75 | 1027.0 |
| 20260506120322 | 62 | 187 | 1.0 | 3.0 | 0.00 | 0.00 | 0.00 | 76 | 1027.2 |
| 20260506115422 | 62 | 186 | 2.0 | 4.0 | 0.00 | 0.00 | 0.00 | 77 | 1026.9 |
| 20260506114424 | 61 | 192 | 1.0 | 3.0 | 0.00 | 0.00 | 0.00 | 79 | 1026.9 |
| 20260506113423 | 60 | 190 | 3.0 | 5.0 | 0.00 | 0.00 | 0.00 | 80 | 1026.9 |
| 20260506112423 | 59 | 175 | 1.0 | 3.0 | 0.00 | 0.00 | 0.00 | 83 | 1027.0 |
| 20260506111425 | 58 | 158 | 1.0 | 3.0 | 0.00 | 0.00 | 0.00 | 84 | 1027.2 |
| 20260506110523 | 58 | 192 | 1.0 | 4.0 | 0.00 | 0.00 | 0.00 | 85 | 1027.2 |
| 20260506105623 | 58 | 200 | 1.0 | 2.0 | 0.00 | 0.00 | 0.00 | 86 | 1027.0 |
| 20260506104624 | 58 | 208 | 0.0 | 3.0 | 0.00 | 0.00 | 0.00 | 86 | 1027.0 |
| 20260506102625 | 57 | 181 | 0.0 | 1.0 | 0.00 | 0.00 | 0.00 | 87 | 1027.0 |
| 20260506100625 | 57 | 132 | 1.0 | 5.0 | 0.00 | 0.00 | 0.00 | 87 | 1027.0 |
| 20260506095625 | 57 | 136 | 0.0 | 2.0 | 0.00 | 0.00 | 0.00 | 87 | 1026.9 |
| 20260506094626 | 57 | 188 | 1.0 | 3.0 | 0.00 | 0.00 | 0.00 | 86 | 1026.8 |
| 20260506093624 | 57 | 198 | 1.0 | 5.0 | 0.00 | 0.00 | 0.00 | 86 | 1026.8 |
| 20260506092624 | 57 | 177 | 1.0 | 3.0 | 0.00 | 0.00 | 0.00 | 86 | 1026.9 |
| 20260506091724 | 57 | 195 | 1.0 | 2.0 | 0.00 | 0.00 | 0.00 | 86 | 1027.0 |
| 20260506090725 | 57 | 186 | 0.0 | 2.0 | 0.00 | 0.00 | 0.00 | 86 | 1027.0 |
| 20260506085823 | 57 | 180 | 1.0 | 2.0 | 0.00 | 0.00 | 0.00 | 85 | 1027.1 |
| 20260506084824 | 57 | 229 | 1.0 | 3.0 | 0.00 | 0.00 | 0.00 | 85 | 1027.3 |
| 20260506083825 | 57 | 205 | 0.0 | 2.0 | 0.00 | 0.00 | 0.00 | 85 | 1027.2 |
| 20260506082826 | 57 | 191 | 2.0 | 3.0 | 0.00 | 0.00 | 0.00 | 84 | 1027.2 |
| 20260506081922 | 57 | 166 | 1.0 | 3.0 | 0.00 | 0.00 | 0.00 | 84 | 1027.4 |
| 20260506073025 | 57 | 164 | 0.0 | 3.0 | 0.00 | 0.00 | 0.00 | 83 | 1027.5 |
| 20260506072124 | 57 | 154 | 1.0 | 2.0 | 0.00 | 0.00 | 0.00 | 83 | 1027.5 |
| 20260506071223 | 57 | 183 | 1.0 | 3.0 | 0.00 | 0.00 | 0.00 | 82 | 1027.6 |
| 20260506070225 | 58 | 203 | 1.0 | 3.0 | 0.00 | 0.00 | 0.00 | 82 | 1027.6 |
| 20260506062424 | 58 | 214 | 0.0 | 4.0 | 0.00 | 0.00 | 0.00 | 81 | 1027.6 |
| 20260506061424 | 58 | 209 | 1.0 | 2.0 | 0.00 | 0.00 | 0.00 | 81 | 1027.4 |
| 20260506060423 | 58 | 179 | 1.0 | 3.0 | 0.00 | 0.00 | 0.00 | 80 | 1027.4 |
| 20260506050723 | 59 | 186 | 3.0 | 6.0 | 0.00 | 0.00 | 0.00 | 78 | 1027.9 |
| 20260506044724 | 59 | 196 | 1.0 | 4.0 | 0.00 | 0.00 | 0.00 | 77 | 1027.8 |
| 20260506042725 | 59 | 208 | 1.0 | 4.0 | 0.00 | 0.00 | 0.00 | 77 | 1027.8 |
| 20260506041724 | 59 | 174 | 3.0 | 5.0 | 0.00 | 0.00 | 0.00 | 77 | 1027.9 |
| 20260506040725 | 59 | 202 | 1.0 | 4.0 | 0.00 | 0.00 | 0.00 | 76 | 1027.9 |
| 20260506035727 | 59 | 175 | 1.0 | 4.0 | 0.00 | 0.00 | 0.00 | 76 | 1027.9 |
| 20260506034826 | 59 | 182 | 1.0 | 3.0 | 0.00 | 0.00 | 0.00 | 76 | 1027.8 |
| 20260506033828 | 59 | 208 | 1.0 | 3.0 | 0.00 | 0.00 | 0.00 | 76 | 1027.8 |
| 20260506032829 | 60 | 242 | 1.0 | 6.0 | 0.00 | 0.00 | 0.00 | 75 | 1027.8 |
| 20260506031928 | 60 | 161 | 1.0 | 4.0 | 0.00 | 0.00 | 0.00 | 74 | 1027.9 |
| 20260506030928 | 60 | 189 | 2.0 | 4.0 | 0.00 | 0.00 | 0.00 | 75 | 1027.9 |
| 20260506030027 | 60 | 159 | 2.0 | 4.0 | 0.00 | 0.00 | 0.00 | 75 | 1027.9 |
| 20260506025028 | 60 | 186 | 1.0 | 3.0 | 0.00 | 0.00 | 0.00 | 75 | 1027.9 |
| 20260506024026 | 60 | 192 | 1.0 | 3.0 | 0.00 | 0.00 | 0.00 | 75 | 1027.8 |
| 20260506023028 | 60 | 202 | 1.0 | 3.0 | 0.00 | 0.00 | 0.00 | 74 | 1027.9 |
| 20260506022928 | 60 | 206 | 1.0 | 4.0 | 0.00 | 0.00 | 0.00 | 74 | 1027.9 |
| 20260506021928 | 60 | 204 | 2.0 | 5.0 | 0.00 | 0.00 | 0.00 | 74 | 1027.9 |
| 20260506021026 | 61 | 203 | 2.0 | 5.0 | 0.00 | 0.00 | 0.00 | 73 | 1027.9 |
| 20260506020026 | 61 | 269 | 1.0 | 3.0 | 0.00 | 0.00 | 0.00 | 72 | 1028.0 |
| 20260506015029 | 62 | 207 | 1.0 | 3.0 | 0.00 | 0.00 | 0.00 | 70 | 1027.9 |
| 20260506014026 | 62 | 209 | 3.0 | 7.0 | 0.00 | 0.00 | 0.00 | 69 | 1027.6 |
| 20260506013028 | 63 | 165 | 2.0 | 6.0 | 0.00 | 0.00 | 0.00 | 68 | 1027.5 |
| 20260506012029 | 63 | 202 | 2.0 | 6.0 | 0.00 | 0.00 | 0.00 | 68 | 1027.4 |
| 20260506010127 | 62 | 181 | 1.0 | 6.0 | 0.00 | 0.00 | 0.00 | 69 | 1027.3 |
| 20260506004227 | 62 | 178 | 2.0 | 4.0 | 0.00 | 0.00 | 0.00 | 69 | 1026.9 |
| 20260506003326 | 62 | 154 | 2.0 | 4.0 | 0.00 | 0.00 | 0.00 | 68 | 1026.8 |
| 20260506002329 | 62 | 158 | 2.0 | 5.0 | 0.00 | 0.00 | 0.00 | 68 | 1026.8 |
| 20260506000527 | 62 | 200 | 2.0 | 5.0 | 0.00 | 0.00 | 0.00 | 68 | 1026.5 |
| 20260505233528 | 63 | 177 | 0.0 | 1.0 | 0.00 | 0.00 | 0.00 | 67 | 1026.3 |
| 20260505232528 | 63 | 220 | 1.0 | 4.0 | 0.00 | 0.00 | 0.00 | 66 | 1026.0 |
| 20260505231527 | 64 | 174 | 1.0 | 3.0 | 0.00 | 0.00 | 0.00 | 65 | 1025.9 |
| 20260505230528 | 64 | 190 | 2.0 | 5.0 | 0.00 | 0.00 | 0.00 | 63 | 1025.6 |
| 20260505225527 | 64 | 199 | 2.0 | 5.0 | 0.00 | 0.00 | 0.00 | 62 | 1025.9 |
| 20260505224528 | 65 | 202 | 0.0 | 4.0 | 0.00 | 0.00 | 0.00 | 62 | 1025.7 |
| 20260505223530 | 65 | 194 | 4.0 | 7.0 | 0.00 | 0.00 | 0.00 | 60 | 1025.8 |
| 20260505221626 | 67 | 182 | 2.0 | 8.0 | 0.00 | 0.00 | 0.00 | 60 | 1025.6 |
| 20260505220628 | 67 | 211 | 3.0 | 8.0 | 0.00 | 0.00 | 0.00 | 60 | 1025.4 |